Flag for U.S.A. Weather past 2 weeks in Ann Arbor, Michigan, U.S.A.

Now
29 °F

Overcast.


Feels Like: 19 °F
Forecast: 27 / 34 °F
Wind: 13 mph from Northwest

Location: Ann Arbor Municipal Airport

Current Time: Dec 18, 2014 at 2:55:58 AM

Latest Report: Dec 18, 2014 at 1:53 AM


Visibility: 10 mi

Pressure: 30.21 "Hg

Humidity: 69%

Dew point: 20 °F

Location of Ann ArborLocation

Historic Weather in Ann Arbor — Graph

°F

Ann Arbor temperature yesterday

Maximum temperature yesterday: 37 °F (at 12:53 AM)
Minimum temperature yesterday: 28 °F (at 7:53 PM)
Average temperature yesterday: 31 °F

Past Weeks' High & Low Weather Summary

 TemperatureHumidityPressure
High54 °F (Dec 14, 2:53 PM)97% (Dec 16, 10:53 AM)30.71 "Hg (Dec 16, 10:53 AM)
Low18 °F (Dec 4, 2:53 AM)34% (Dec 11, 1:53 PM)29.67 "Hg (Dec 16, 6:53 AM)
Average35 °F74%30.18 "Hg
* Reported Dec 3 2:01 AM — Dec 18 1:53 AM, Ann Arbor, Weather by CustomWeather, © 2014

Note: Actual official high and low records may vary slightly from our data, if they occured in-between our weather recording intervals... More about our weather records

Advertising

Ann Arbor weather history for previous 24 hours

 ConditionsComfort  
Time TempWeatherWind HumidityBarometerVisibility
1:53 AM
Dec 18
29 °FOvercast.13 mph69%30.21 "Hg10 mi
12:53 AM28 °FOvercast.14 mph69%30.20 "Hg10 mi
11:53 PM
Dec 17
28 °FMostly cloudy.14 mph69%30.20 "Hg10 mi
11:01 PM28 °FOvercast.10 mph66%30.16 "Hg10 mi
9:53 PM28 °FOvercast.9 mph66%30.18 "Hg10 mi
8:53 PM28 °FMostly cloudy.14 mph66%30.18 "Hg10 mi
7:53 PM28 °FOvercast.18 mph64%30.17 "Hg10 mi
6:53 PM29 °FOvercast.15 mph66%30.16 "Hg10 mi
5:53 PM29 °FOvercast.15 mph64%30.14 "Hg10 mi
4:53 PM30 °FOvercast.20 mph69%30.11 "Hg10 mi
3:53 PM30 °FOvercast.15 mph69%30.10 "Hg10 mi
2:53 PM31 °FOvercast.18 mph69%30.10 "Hg10 mi
1:53 PM31 °FOvercast.16 mph67%30.09 "Hg10 mi
12:53 PM31 °FOvercast.20 mph67%30.09 "Hg10 mi
11:53 AM31 °FOvercast.16 mph67%30.11 "Hg10 mi
10:53 AM31 °FOvercast.17 mph69%30.11 "Hg10 mi
9:53 AM31 °FOvercast.20 mph69%30.10 "Hg10 mi
8:53 AM31 °FOvercast.20 mph69%30.08 "Hg10 mi
7:53 AM31 °FOvercast.16 mph73%30.07 "Hg10 mi
6:53 AM32 °FOvercast.21 mph73%30.04 "Hg10 mi
5:53 AM33 °FOvercast.17 mph72%30.01 "Hg10 mi
4:53 AM34 °FMostly cloudy.16 mph79%29.99 "Hg9 mi
3:53 AM35 °FOvercast.12 mph78%29.98 "Hg10 mi
2:53 AM35 °FOvercast.17 mph78%29.96 "Hg10 mi
Weather by CustomWeather, © 2014

See weather overviewHow to use our weather pages